This is the latest recevied weather packets stored in our database for station/object N1UNH. If no packets are shown the sender has not sent any weather packets the latest 10 day(s).
| Time | Temp. | Humidity | Pressure | Rain* | Wind** | Luminosity | Snow |
|---|---|---|---|---|---|---|---|
| 1777754460 | 9.44° C | 91% | 1015.5 hPa | 0 mm | - | 110 W/m² | - |
| 1777754156 | 9.44° C | 91% | 1015.5 hPa | 0 mm | - | 134 W/m² | - |
| 1777753854 | 9.44° C | 91% | 1015.5 hPa | 3.05 mm | - | 109 W/m² | - |
| 1777753550 | 9.44° C | 91% | 1015.5 hPa | 3.05 mm | - | 99 W/m² | - |
| 1777753248 | 9.44° C | 91% | 1015.7 hPa | 1.27 mm | - | 159 W/m² | - |
| 1777752944 | 9.44° C | 91% | 1015.6 hPa | 0 mm | - | 52 W/m² | - |
| 1777752640 | 9.44° C | 89% | 1015.6 hPa | 0 mm | - | 40 W/m² | - |
| 1777752336 | 9.44° C | 88% | 1015.6 hPa | 0 mm | - | 55 W/m² | - |
| 1777752035 | 9.44° C | 87% | 1015.8 hPa | 0 mm | - | 64 W/m² | - |
| 1777751732 | 10° C | 86% | 1015.6 hPa | 0 mm | - | 76 W/m² | - |
| 1777751427 | 10° C | 85% | 1015.7 hPa | 0 mm | - | 40 W/m² | - |
| 1777751124 | 10.56° C | 86% | 1015.5 hPa | 0 mm | - | 54 W/m² | - |
| 1777750820 | 11.11° C | 84% | 1015.6 hPa | 0 mm | - | 133 W/m² | - |
| 1777750518 | 11.11° C | 83% | 1015.7 hPa | 0 mm | - | 236 W/m² | - |
| 1777750214 | 10.56° C | 85% | 1015.8 hPa | 0 mm | - | 359 W/m² | - |
| 1777749910 | 11.11° C | 86% | 1015.8 hPa | 0 mm | - | 251 W/m² | - |
| 1777749608 | 10.56° C | 86% | 1015.8 hPa | 0 mm | - | 365 W/m² | - |
| 1777749305 | 10.56° C | 87% | 1015.8 hPa | 0 mm | - | 403 W/m² | - |
| 1777749003 | 10.56° C | 85% | 1016 hPa | 0 mm | - | 325 W/m² | - |
| 1777748700 | 10.56° C | 87% | 1015.9 hPa | 0 mm | - | 304 W/m² | - |
| 1777748396 | 9.44° C | 91% | 1016.2 hPa | 0 mm | - | 489 W/m² | - |
| 1777748092 | 9.44° C | 90% | 1015.9 hPa | 0 mm | - | 310 W/m² | - |
| 1777747789 | 8.89° C | 91% | 1015.8 hPa | 0 mm | - | 387 W/m² | - |
| 1777747484 | 8.89° C | 92% | 1016.2 hPa | 0 mm | - | 188 W/m² | - |
| 1777747181 | 8.89° C | 93% | 1016.2 hPa | 0 mm | - | 195 W/m² | - |
* Rain latest hour (hover to see other rain measurements)
** Current wind speed in m/s (hover to see current wind gust speed)